Date String (YYYY-MM-DD hh:mm:ss) UTC,Instrument flags,absolute air pressure of the measurement (hPa),sample flow rate (lpm),inlet stack bypass flow (lpm),air temperature of the measurement (°C),ambient temperature measured by the external sensor (°C),aerosol sample conditioner tube jacket temperature (°C),OPC LED temperature (°C),internal box temperature (°C),relative humidity of the measurement (%),span deviation,mass concentration of particles derived from Lorenz-Mie calculation of OPC scattering (μg/m³),mass concentration of particles derived from Lorenz-Mie calculation of OPC scattering (μg/m³),mass concentration of particles derived from Lorenz-Mie calculation of OPC scattering (μg/m³)
DateTimeUTC,F1_M11,P_M11,Q1_M11,Q2_M11,T1_M11,T2_M11,T3_M11,T4_M11,T5_M11,U1_M11,ZSPAN_M11,X0_M11,X2_M11,X1_M11
2023-11-22 20:00:00,SystemResetWarning,0829.1,5.00,000.00,026.0,025.1,000.0,034.1,027.5,8.4,0000.0,0003.98,0000.71,0000.41
2023-11-22 20:01:00,SystemResetWarning,0829.1,5.00,000.00,026.1,025.2,000.0,034.1,027.6,8.4,0000.0,0003.77,0000.72,0000.42
2023-11-22 20:02:00,SystemResetWarning,0829.1,5.01,000.00,026.1,025.3,000.0,034.1,027.6,8.4,0000.0,0003.56,0000.73,0000.42
2023-11-22 20:03:00,SystemResetWarning,0829.1,5.00,000.00,026.2,025.4,000.0,034.2,027.7,8.3,0000.0,0003.72,0000.78,0000.41
2023-11-22 20:04:00,SystemResetWarning,0829.1,5.00,000.00,026.2,025.5,000.0,034.2,027.7,8.3,0000.0,0004.47,0000.80,0000.41
2023-11-22 20:05:00,SystemResetWarning,0829.1,5.00,000.00,026.2,025.5,000.0,034.2,027.8,8.3,0000.0,0004.33,0000.76,0000.42
2023-11-22 20:06:00,SystemResetWarning,0829.1,5.00,000.00,026.3,025.6,000.0,034.3,027.8,8.4,0000.0,0005.11,0000.76,0000.42
2023-11-22 20:07:00,SystemResetWarning,0829.1,4.99,000.00,026.3,025.1,000.0,034.3,027.8,8.4,0000.0,0005.60,0000.78,0000.42
2023-11-22 20:08:00,SystemResetWarning,0829.1,4.99,000.00,026.2,023.1,000.0,034.3,027.4,8.5,0000.0,0005.56,0000.78,0000.41
2023-11-22 20:09:00,SystemResetWarning,0829.0,5.01,000.00,026.0,022.0,000.0,034.2,027.1,8.6,0000.0,0005.57,0000.78,0000.41
2023-11-22 20:10:00,SystemResetWarning,0829.0,5.00,000.00,025.9,022.2,000.0,034.1,026.8,8.6,0000.0,0005.57,0000.77,0000.40
2023-11-22 20:11:00,SystemResetWarning,0829.0,5.00,000.00,025.8,022.6,000.0,034.1,026.7,8.6,0000.0,0005.28,0000.76,0000.40
2023-11-22 20:12:00,SystemResetWarning,0829.1,5.00,000.00,025.7,023.0,000.0,034.1,026.8,8.7,0000.0,0006.48,0000.77,0000.40
2023-11-22 20:13:00,SystemResetWarning,0829.0,5.01,000.00,025.7,023.4,000.0,034.0,026.9,8.8,0000.0,0007.36,0000.74,0000.40
2023-11-22 20:14:00,SystemResetWarning,0829.0,4.99,000.00,025.7,023.8,000.0,034.0,027.0,8.8,0000.0,0007.96,0000.68,0000.40
2023-11-22 20:15:00,SystemResetWarning,0828.9,5.00,000.00,025.8,024.1,000.0,034.0,027.1,8.7,0000.0,0007.36,0000.64,0000.40
2023-11-22 20:16:00,SystemResetWarning,0829.0,5.00,000.00,025.8,024.3,000.0,034.0,027.2,8.7,0000.0,0007.54,0000.68,0000.40
2023-11-22 20:17:00,SystemResetWarning,0828.9,5.01,000.00,025.8,024.5,000.0,034.0,027.3,8.7,0000.0,0007.89,0000.69,0000.41
2023-11-22 20:18:00,SystemResetWarning,0829.0,5.01,000.00,025.9,024.7,000.0,034.0,027.3,8.6,0000.0,0007.62,0000.66,0000.40
2023-11-22 20:19:00,SystemResetWarning,0829.0,4.99,000.00,025.9,024.9,000.0,034.0,027.4,8.6,0000.0,0007.65,0000.65,0000.41
2023-11-22 20:20:00,SystemResetWarning,0829.0,5.00,000.00,026.0,025.0,000.0,034.0,027.5,8.5,0000.0,0007.98,0000.68,0000.41
2023-11-22 20:21:00,SystemResetWarning,0828.9,5.00,000.00,026.0,025.1,000.0,034.1,027.5,8.5,0000.0,0007.98,0000.68,0000.41
2023-11-22 20:22:00,SystemResetWarning,0828.8,5.00,000.00,026.1,025.2,000.0,034.1,027.6,8.4,0000.0,0007.55,0000.68,0000.42
2023-11-22 20:23:00,SystemResetWarning,0828.8,5.00,000.00,026.1,025.3,000.0,034.1,027.6,8.4,0000.0,0006.42,0000.66,0000.42
2023-11-22 20:24:00,SystemResetWarning,0828.8,5.00,000.00,026.1,025.4,000.0,034.1,027.7,8.4,0000.0,0005.36,0000.68,0000.42
2023-11-22 20:25:00,SystemResetWarning,0828.8,5.00,000.00,026.2,025.5,000.0,034.2,027.8,8.4,0000.0,0003.69,0000.68,0000.43
2023-11-22 20:26:00,SystemResetWarning,0828.7,4.99,000.00,026.2,024.4,000.0,034.2,027.7,8.4,0000.0,0003.52,0000.66,0000.43
2023-11-22 20:27:00,SystemResetWarning,0828.7,5.00,000.00,026.1,022.5,000.0,034.1,027.2,8.5,0000.0,0003.28,0000.63,0000.43
2023-11-22 20:28:00,SystemResetWarning,0828.7,5.00,000.00,025.9,022.0,000.0,034.1,026.9,8.6,0000.0,0002.11,0000.63,0000.42
2023-11-22 20:29:00,SystemResetWarning,0828.6,5.01,000.00,025.8,022.3,000.0,034.0,026.6,8.6,0000.0,0001.95,0000.67,0000.42
2023-11-22 20:30:00,SystemResetWarning,0828.6,4.99,000.00,025.7,022.7,000.0,034.0,026.6,8.7,0000.0,0002.31,0000.69,0000.41
2023-11-22 20:31:00,SystemResetWarning,0828.7,5.00,000.00,025.7,023.1,000.0,034.0,026.8,8.7,0000.0,0001.78,0000.65,0000.41
2023-11-22 20:32:00,SystemResetWarning,0828.7,5.00,000.00,025.7,023.5,000.0,033.9,026.9,8.6,0000.0,0002.26,0000.66,0000.41
2023-11-22 20:33:00,SystemResetWarning,0828.7,5.00,000.00,025.7,023.8,000.0,033.9,027.0,8.6,0000.0,0002.93,0000.68,0000.41
2023-11-22 20:34:00,SystemResetWarning,0828.6,5.00,000.00,025.7,024.1,000.0,033.9,027.1,8.6,0000.0,0003.00,0000.68,0000.41
2023-11-22 20:35:00,SystemResetWarning,0828.6,5.00,000.00,025.8,024.3,000.0,033.9,027.2,8.6,0000.0,0003.34,0000.70,0000.41
2023-11-22 20:36:00,SystemResetWarning,0828.6,5.00,000.00,025.8,024.6,000.0,033.9,027.3,8.5,0000.0,0004.03,0000.73,0000.41
2023-11-22 20:37:00,SystemResetWarning,0828.6,5.00,000.00,025.9,024.7,000.0,033.9,027.4,8.6,0000.0,0005.19,0000.77,0000.41
2023-11-22 20:38:00,SystemResetWarning,0828.6,5.01,000.00,025.9,024.9,000.0,033.9,027.4,8.5,0000.0,0005.33,0000.80,0000.41
2023-11-22 20:39:00,SystemResetWarning,0828.6,5.00,000.00,026.0,025.0,000.0,034.0,027.5,8.5,0000.0,0006.16,0000.88,0000.41
2023-11-22 20:40:00,SystemResetWarning,0828.6,4.99,000.00,026.0,025.2,000.0,034.0,027.6,8.5,0000.0,0007.48,0000.90,0000.43
2023-11-22 20:41:00,SystemResetWarning,0828.5,4.99,000.00,026.1,025.3,000.0,034.0,027.6,8.5,0000.0,0007.35,0000.92,0000.44
2023-11-22 20:42:00,SystemResetWarning,0828.6,5.01,000.00,026.1,025.4,000.0,034.1,027.7,8.4,0000.0,0007.77,0000.95,0000.45
2023-11-22 20:43:00,SystemResetWarning,0828.6,5.00,000.00,026.2,025.5,000.0,034.1,027.7,8.4,0000.0,0007.66,0000.98,0000.45
2023-11-22 20:44:00,SystemResetWarning,0828.6,4.99,000.00,026.2,024.6,000.0,034.1,027.7,8.5,0000.0,0007.40,0001.03,0000.45
2023-11-22 20:45:00,SystemResetWarning,0828.6,5.01,000.00,026.1,023.1,000.0,034.1,027.4,8.5,0000.0,0008.09,0001.10,0000.45
2023-11-22 20:46:00,SystemResetWarning,0828.4,5.01,000.00,026.0,023.0,000.0,034.1,027.2,8.5,0000.0,0008.48,0001.14,0000.46
2023-11-22 20:47:00,SystemResetWarning,0828.4,5.00,000.00,025.9,023.2,000.0,034.1,026.9,8.5,0000.0,0008.50,0001.13,0000.46
2023-11-22 20:48:00,SystemResetWarning,0828.4,4.99,000.00,025.8,023.6,000.0,034.0,027.0,8.6,0000.0,0008.46,0001.16,0000.46
2023-11-22 20:49:00,SystemResetWarning,0828.4,5.00,000.00,025.8,023.9,000.0,034.0,027.1,8.6,0000.0,0009.09,0001.18,0000.47
2023-11-22 20:50:00,SystemResetWarning,0828.4,5.01,000.00,025.9,024.2,000.0,034.0,027.2,8.6,0000.0,0009.35,0001.12,0000.47
2023-11-22 20:51:00,SystemResetWarning,0828.4,5.01,000.00,025.9,024.4,000.0,034.0,027.3,8.6,0000.0,0008.59,0001.12,0000.47
2023-11-22 20:52:00,SystemResetWarning,0828.4,5.01,000.00,025.9,024.6,000.0,034.0,027.4,8.5,0000.0,0009.08,0001.11,0000.46
2023-11-22 20:53:00,SystemResetWarning,0828.4,5.00,000.00,026.0,024.8,000.0,034.0,027.5,8.6,0000.0,0009.56,0001.11,0000.46
2023-11-22 20:54:00,SystemResetWarning,0828.4,5.00,000.00,026.0,025.0,000.0,034.1,027.6,8.5,0000.0,0009.43,0001.09,0000.46
2023-11-22 20:55:00,SystemResetWarning,0828.4,5.00,000.00,026.1,025.1,000.0,034.1,027.6,8.5,0000.0,0009.32,0001.06,0000.45
2023-11-22 20:56:00,SystemResetWarning,0828.3,5.00,000.00,026.1,025.3,000.0,034.1,027.7,8.4,0000.0,0009.16,0001.04,0000.45
2023-11-22 20:57:00,SystemResetWarning,0828.4,4.99,000.00,026.2,025.4,000.0,034.1,027.7,8.4,0000.0,0009.25,0001.04,0000.45
2023-11-22 20:58:00,SystemResetWarning,0828.4,4.99,000.00,026.2,024.3,000.0,034.2,027.6,8.5,0000.0,0008.98,0001.06,0000.44
2023-11-22 20:59:00,SystemResetWarning,0828.3,5.01,000.00,026.0,022.4,000.0,034.1,027.1,8.4,0000.0,0008.61,0001.04,0000.44
